SCP
0 0 0 0 0 0 0 0 0 0 0 0 0 0 0 0 0 0 0 0 0 0 0 1 1 1 1 1 1 1 1 1 1 1 1 1 1 1 2 2 2 2 2
0 0 0 0 0 0 0 0 0 0 0 0 0 0 0 0 0 0 0 0 0 0 0 1 1 1 1 1 1 1 1 1 0 0 1 1 1 1 1 2 2 2 2
0 0 0 0 0 0 0 0 0 0 0 0 0 0 0 0 0 0 0 0 0 0 0 1 1 1 1 1 1 1 1 1 0 0 0 1 1 1 1 2 3 2 2
0 0 0 0 0 0 0 0 0 0 0 0 0 0 0 0 0 0 0 0 0 0 0 0 0 1 1 0 0 0 0 1 1 0 0 1 1 1 2 2 3 2 2
0 0 0 0 0 0 0 0 0 0 0 0 0 0 0 0 0 0 0 0 0 0 0 0 0 0 1 0 0 0 0 0 0 0 0 1 1 1 2 2 2 2 2
0 0 0 0 0 0 0 0 0 0 0 0 0 0 0 0 0 0 0 0 0 0 0 0 0 0 0 0 0 0 0 1 1 1 0 1 1 1 1 2 2 2 2
0 0 0 0 0 0 0 0 0 0 0 0 0 0 0 0 0 0 0 0 0 0 0 0 0 0 0 0 0 0 1 1 2 1 1 1 1 1 1 1 1 1 2
0 0 0 0 0 0 0 0 0 0 0 0 0 0 0 0 0 0 0 0 0 0 0 0 0 0 0 0 0 0 1 2 2 2 1 1 1 1 1 1 1 2 2
0 0 0 0 0 0 0 0 0 0 0 0 0 0 0 0 0 0 0 0 0 0 0 0 0 0 0 0 0 0 0 1 2 2 1 1 1 1 1 1 1 2 2
0 0 0 0 0 0 0 0 0 0 0 0 0 0 0 0 0 0 0 0 0 0 0 0 0 0 0 0 0 0 0 0 1 1 1 1 1 1 1 1 1 1 2
0 0 0 0 0 0 0 0 0 0 0 0 0 0 0 0 0 0 0 0 0 0 0 0 0 0 0 0 0 0 0 0 0 1 1 1 1 0 1 1 1 1 1
0 0 0 0 0 0 0 0 0 0 0 0 0 0 0 0 0 0 0 0 0 0 0 0 0 0 0 0 0 0 0 0 0 0 0 0 0 0 1 1 1 1 1
0 0 0 0 0 0 0 0 0 0 0 0 0 0 0 0 0 0 0 0 0 0 0 0 0 0 0 0 0 0 0 0 0 0 0 0 0 0 1 1 1 1 1
0 0 0 0 0 0 0 0 0 0 0 0 0 0 0 0 0 0 0 0 0 0 0 0 0 0 0 0 0 0 0 0 0 0 0 0 0 0 1 1 1 1 1
0 0 0 0 0 0 0 0 0 0 0 0 0 0 0 0 0 0 0 0 0 0 0 0 0 0 0 0 0 0 0 0 0 0 0 0 0 0 1 1 1 1 1
0 0 0 0 0 0 0 0 0 0 0 0 0 0 0 0 0 0 0 0 0 0 0 0 0 0 0 0 0 0 0 0 0 0 0 0 0 0 1 1 1 1 0
0 0 0 0 0 0 0 0 0 0 0 0 0 0 0 0 0 0 0 0 0 0 0 0 0 0 0 0 0 0 0 0 0 0 0 0 0 0 0 0 0 0 0
0 0 0 0 0 0 0 0 0 0 0 0 0 0 0 0 0 0 0 0 0 0 0 0 0 0 0 0 0 0 0 0 0 0 0 0 0 0 0 0 0 0 0
0 0 0 0 0 0 0 0 0 0 0 0 0 0 0 0 0 0 0 0 0 0 0 0 0 0 0 0 0 0 0 0 0 0 0 0 0 0 0 0 0 0 0
0 0 0 0 0 0 0 0 0 0 0 0 0 0 0 0 0 0 0 0 0 0 0 0 0 0 0 0 0 0 0 0 0 0 0 0 0 0 0 0 0 0 0
0 0 0 0 0 0 0 0 0 0 0 0 0 0 0 0 0 0 0 0 0 0 0 0 0 0 0 0 0 0 0 0 0 0 0 0 0 0 0 0 0 0 0
0 0 0 0 0 0 0 0 0 0 0 0 0 0 0 0 0 0 0 0 0 0 0 0 0 0 0 0 0 0 0 0 0 0 0 0 0 0 0 0 0 0 0
0 0 0 0 0 0 0 0 0 0 0 0 0 0 0 0 0 0 0 0 0 0 0 0 0 0 0 0 0 0 0 0 0 0 0 0 0 0 0 0 0 0 0
0 0 0 0 0 0 0 0 0 0 0 0 0 0 0 0 0 0 0 0 0 0 0 0 0 0 0 0 0 0 0 0 0 0 0 0 0 0 0 0 0 0 0
0 0 0 0 0 0 0 0 0 0 0 0 0 0 0 0 0 0 0 0 0 0 0 0 0 0 0 0 0 0 0 0 0 0 0 0 0 0 0 0 0 0 0
0 0 0 0 0 0 0 0 0 0 0 0 0 0 0 0 0 0 0 0 0 0 0 0 0 0 0 0 0 0 0 0 0 0 0 0 0 0 0 0 0 0 0
Wind_Speed
2 2 2 2 3 3 3 3 3 4 5 5 5 5 5 5 4 4 4 9 10 10 10 9 9 9 10 10 10 10 10 10 10 9 9 9 8 6 3 1 1 0 1
2 2 2 3 3 3 3 3 4 4 4 4 5 5 5 4 4 4 4 6 11 11 11 10 10 10 10 10 10 10 10 10 10 9 9 9 9 7 5 3 2 1 1
3 3 2 3 2 3 3 3 4 4 4 4 5 5 4 4 4 5 5 4 5 9 12 11 11 11 11 10 11 11 10 10 10 10 10 10 9 8 5 5 4 3 2
3 3 3 3 2 3 3 3 3 4 4 4 4 4 4 4 5 5 4 5 4 5 8 12 12 12 12 11 11 11 11 10 10 10 10 10 10 9 6 5 5 4 3
4 3 3 2 3 3 3 3 3 3 3 4 4 4 4 4 4 5 5 6 5 5 4 8 12 12 13 13 12 11 11 11 10 10 10 10 10 9 8 7 6 5 5
3 3 3 3 3 3 3 3 4 4 3 3 4 5 4 4 4 4 4 4 4 5 5 6 5 7 12 13 13 12 12 11 10 10 10 10 10 9 8 8 7 6 6
3 3 3 3 3 3 3 3 3 4 3 2 3 3 4 4 4 4 4 4 5 5 5 5 4 4 5 11 13 13 13 11 10 10 10 10 10 10 9 8 7 6 6
2 3 3 3 3 3 4 3 3 2 2 3 2 2 2 4 4 4 4 4 4 4 4 5 5 5 4 4 8 13 12 11 11 10 10 10 10 10 9 9 8 6 6
2 3 3 3 3 3 3 2 2 3 2 2 2 3 3 1 2 3 3 3 4 3 3 3 5 5 5 5 5 9 13 12 11 11 10 10 9 9 9 9 7 7 7
2 2 3 3 3 2 2 2 2 2 3 1 2 2 2 3 2 1 3 3 3 3 4 4 4 5 5 4 6 10 12 12 11 10 10 9 9 9 9 9 8 7 7
2 2 2 3 3 2 2 2 3 3 2 2 1 1 2 2 2 2 1 3 3 3 3 3 3 3 4 4 4 7 10 10 11 11 10 10 10 10 10 9 9 7 6
1 1 2 2 2 2 2 2 2 3 2 2 1 1 2 2 1 2 1 1 2 3 3 3 2 3 3 4 6 9 9 9 9 9 9 9 10 10 10 9 9 8 7
0 0 1 1 1 1 2 2 2 2 2 2 1 1 1 1 2 2 2 1 1 2 3 2 2 2 3 3 4 9 8 8 8 8 8 8 9 9 9 9 8 8 8
2 1 2 2 1 2 2 2 2 1 1 2 2 1 1 0 1 2 2 2 1 2 2 3 3 2 3 3 5 7 5 8 7 7 7 7 7 7 7 8 8 8 7
2 2 2 2 1 2 2 2 2 1 2 1 1 1 1 0 1 1 2 2 3 0 2 3 3 3 3 2 5 4 3 6 7 7 7 7 7 7 7 6 7 7 7
2 3 2 2 2 2 2 2 2 1 2 1 1 2 1 0 1 1 1 1 2 3 1 2 2 3 4 4 5 4 4 8 8 7 7 7 7 7 6 6 6 7 7
3 3 3 3 2 2 2 2 2 2 2 1 1 1 1 1 1 1 1 1 1 2 2 2 2 2 3 4 5 4 3 3 4 7 7 7 7 7 6 6 6 6 6
3 3 3 3 3 2 2 3 2 2 2 1 1 1 0 1 1 0 1 1 1 1 2 2 2 2 3 3 4 4 4 4 3 6 7 7 7 7 7 6 6 6 6
3 2 3 3 3 3 3 3 3 2 2 2 1 1 1 1 0 0 0 0 0 0 1 1 2 2 2 3 3 3 4 3 4 5 6 7 7 7 7 6 6 6 7
3 3 3 3 3 3 3 3 3 2 2 1 1 1 1 2 2 1 1 1 1 1 1 0 1 2 2 2 2 2 3 3 3 4 5 5 6 7 8 7 7 7 7
3 3 3 2 2 2 2 3 3 3 2 1 0 1 1 2 2 2 1 1 2 1 0 0 1 1 2 2 2 2 3 3 3 2 3 3 3 3 4 6 7 8 7
2 3 2 2 2 2 3 6 5 3 3 3 2 1 1 1 2 2 2 2 2 2 2 1 1 2 3 3 2 2 2 2 4 2 2 3 2 3 3 3 6 7 8
3 3 2 3 3 3 4 5 6 4 3 3 2 1 1 1 1 1 1 1 1 2 2 3 2 3 3 3 2 2 2 2 3 3 2 3 2 3 3 4 7 8 8
3 3 3 3 2 3 4 5 6 3 2 2 2 2 2 2 1 1 1 1 1 2 2 2 3 3 3 3 3 3 3 2 3 3 1 3 3 3 4 4 7 8 8
3 3 2 3 3 3 3 5 5 3 2 1 1 1 2 2 2 1 1 1 2 3 3 2 2 3 4 4 1 0 1 1 3 3 1 2 3 4 4 4 5 7 8
3 3 2 2 3 3 3 5 6 3 2 1 1 1 3 2 2 2 2 2 2 3 2 2 2 4 3 3 2 1 2 1 2 3 2 1 2 3 4 3 3 3 5
Wind_Direction
57 38 29 31 32 38 48 52 59 59 55 53 57 62 58 53 49 42 25 37 40 41 41 42 42 41 38 35 34 31 29 25 22 22 19 13 6 357 350 351 359 70 163
78 61 46 39 35 41 48 59 63 66 59 57 55 55 54 51 48 43 34 29 37 41 40 37 36 37 35 33 32 30 27 23 21 22 19 15 7 7 20 37 34 34 74
82 82 66 51 38 48 59 62 58 61 63 59 52 47 46 42 44 39 33 28 24 33 38 37 34 33 33 33 31 29 26 22 21 23 21 17 9 16 30 47 42 42 48
81 81 73 55 46 59 64 71 63 66 58 56 50 38 38 38 40 40 36 32 27 26 28 35 36 33 32 31 28 26 24 21 22 22 22 21 17 23 37 43 43 44 44
71 78 73 59 60 68 61 73 62 74 73 63 61 48 37 39 35 42 37 34 30 30 26 29 32 31 29 27 26 23 20 18 22 22 24 25 25 30 40 40 41 43 49
78 83 77 63 66 73 63 67 73 63 70 69 70 55 40 37 40 37 30 29 28 30 29 28 20 19 26 25 23 22 19 16 20 23 24 26 27 32 37 39 40 43 49
84 86 85 72 70 79 80 85 88 70 49 36 68 43 24 34 44 33 28 32 27 23 25 27 20 15 10 20 18 20 17 18 23 25 26 27 29 31 31 32 36 43 49
76 92 93 88 81 87 76 72 85 89 47 32 90 85 26 1 7 21 19 29 19 14 22 24 19 16 9 6 6 16 20 23 29 29 28 31 32 32 30 29 31 40 48
66 82 95 97 86 88 92 81 87 106 102 38 54 119 127 207 322 344 8 16 10 15 8 5 15 10 8 6 357 5 18 22 27 28 28 29 31 31 28 25 31 43 49
66 85 100 101 96 90 92 86 86 99 116 96 51 54 102 146 137 343 336 348 3 16 3 5 4 2 4 359 359 6 15 15 20 24 27 29 31 31 30 27 34 48 50
41 81 103 105 102 97 99 91 85 83 96 119 122 106 82 68 88 129 311 328 343 342 347 349 350 354 356 356 350 2 12 14 17 21 25 27 28 27 29 29 33 39 41
20 64 110 111 114 110 108 105 98 95 93 97 102 116 135 132 141 131 159 294 314 313 327 336 346 344 344 350 350 358 5 10 14 19 22 23 24 23 24 25 26 26 25
232 213 134 136 131 130 121 112 99 95 104 109 117 121 135 148 150 144 140 176 318 312 324 327 328 333 340 346 341 348 356 2 9 15 19 19 18 17 16 17 19 19 18
206 182 150 146 143 136 126 118 101 101 102 106 104 112 105 107 142 152 154 143 52 337 334 314 322 331 336 334 337 347 350 359 3 7 9 8 9 10 10 12 14 13 10
192 167 150 142 138 134 133 125 111 110 106 100 108 109 102 78 117 144 151 153 146 156 303 306 316 324 328 327 340 349 347 356 2 1 360 358 359 359 360 3 6 4 1
171 156 148 142 142 133 128 122 114 111 105 85 103 97 82 75 84 93 131 141 146 157 220 275 278 305 322 337 353 356 349 353 358 358 353 352 353 352 355 1 7 8 5
167 167 163 156 158 149 141 135 133 125 114 85 66 92 65 78 87 77 103 114 127 141 185 283 290 307 328 336 337 343 343 346 344 354 352 352 353 354 357 360 2 1 359
168 169 159 159 168 162 154 155 160 148 147 141 136 105 36 87 73 73 105 128 157 170 170 254 305 320 319 323 326 334 338 341 335 345 351 352 353 353 353 353 353 349 346
157 155 155 168 173 167 166 171 165 163 168 171 175 172 205 143 188 222 144 141 176 123 150 186 288 308 310 327 338 336 337 333 330 337 347 354 355 353 351 348 345 342 338
153 162 171 176 175 169 169 171 161 157 160 161 181 195 207 199 212 208 190 196 149 99 91 139 290 307 307 313 338 333 332 337 331 337 345 343 345 351 349 345 341 336 332
162 165 159 165 169 163 173 165 164 164 163 161 201 239 225 221 227 212 198 191 160 146 127 290 298 318 313 323 314 308 312 317 315 327 331 333 334 337 336 335 334 333 331
159 149 159 166 167 187 181 172 165 167 167 169 196 252 269 273 276 263 241 199 175 176 192 199 246 263 278 273 280 295 303 334 318 323 333 312 321 313 310 312 318 320 322
163 162 176 171 183 206 186 176 173 162 167 181 194 214 276 308 283 277 315 318 285 269 218 191 209 241 255 253 255 286 272 256 268 292 311 297 303 297 296 308 316 324 324
167 174 181 189 193 217 197 180 169 153 151 179 194 198 210 265 259 201 150 22 316 302 271 228 217 242 251 248 225 236 246 270 281 288 277 285 297 290 303 302 316 322 324
171 177 179 183 195 231 201 181 160 149 157 203 217 207 201 229 255 218 139 205 304 309 305 286 276 297 313 313 302 41 338 319 302 297 271 261 292 299 294 291 309 323 322
177 169 167 183 196 219 202 185 169 156 170 212 241 251 237 234 255 234 178 185 254 280 298 321 326 331 325 324 316 225 209 241 277 291 282 257 289 314 307 289 292 312 316